Location: Arroyo de Valdeoliva
(40.1604°N, 4.9878°W)
Time: 21:33:50
(UTC+00:00)

Cosmos 2084 Rocket - Pass Details

Date: 11 December 2025
Orbit: 545 x 568 km, 62.8° (Epoch: 12 January)

Event Time Altitude Azimuth Distance (km) Brightness Sun altitude
Rises 17:21:09 0° 331° (NNW) 2,770 6.9 -5.4°
Reaches altitude 10° 17:23:30 10° 340° (NNW) 1,872 6.0 -5.8°
Maximum altitude 17:27:28 38° 49° (NE) 876 3.9 -6.5°
Drops below altitude 10° 17:31:24 10° 118° (ESE) 1,864 5.7 -7.1°
Sets 17:33:44 0° 127° (SE) 2,757 6.6 -7.6°
